STARLINK-32595, 62037

Orbit data source: Space-Track

STARLINK-32595, 62037 is a payload satellite owned by SpaceX/Seattle (US) in LEO that was launched on Thu, 21 Nov 2024 UTC via an FALCON 9 launch vehicle from the Air Force Eastern Test Range (AFETR). Payload-class satellites include a variety of spacecraft equipped with specific instruments for various scientific and technological missions. These include communications satellites like Starlink; space stations such as the ISS; scientific satellites like the Hubble; Earth observation satellites from companies like Planet Labs, Umbra, and HawkEye 360; GPS; miniature CubeSats for education and research; and military/defense satellites.

Loading next visibility...
Identifier
62037, 2024-216F
Orbit
LEO
Country
Flag of USUS
Related business
Manufacturer
SpaceX/Seattle
Mission
Operational Commercial Communications
Bus & Motor
STARLINK V2M, Unknown motor
Mass
730 kg wet, ~700 kg dry
Launch date (UTC)
2024-11-21 (11 months ago)
Launch vehicle
FALCON 9
Launch site
Air Force Eastern Test Range (AFETR)
Object type
Payload
Rocket body
Debris
Shape & HBR
Box + 2 Pan, 17.7 m
Radar Cross Section
33.884 m², Large (>1 m²)

Expand to show TLE details & history
Last TLE update: 14 hours ago

TLE from 14 hours ago
0 STARLINK-32595
1 62037U 24216F   25298.08580409  .00018173  00000-0  66821-3 0  9999
2 62037  43.0017 309.3345 0001201 246.8032 113.2693 15.27584172 53062
Epoch: 2025-10-25T02:03Z
TLE epoch observation values (Epoch: 2025-10-25T02:03:33.473Z)
Latitude
-0.00003°
Longitude
-115.27641°
Altitude
483.138 km
Speed
7.625 km/s
True Right ascension
20h 37m 20s
True Declination
0° 00' 00"
Sunlit
Object was in daylight at epoch
Visualization orbit readout
Latitude
Unknown
Longitude
Unknown
Altitude
Unknown
Speed
Unknown
Apparent Right ascension
Unknown
Apparent Declination
Unknown
Sunlit
N/A
Visualization observer readout
Local Sidereal Time
10:53:52
Azimuth
Unknown
Elevation
Unknown
Doppler factor
Unknown
Orbital elements
Apogee altitude
485.806 km
Perigee altitude
484.157 km
Semi-major axis
6,863.118 km
Eccentricity
0.00012
Inclination
43.0017°
RAAN
309.3345°
Arg. of periapsis
246.8032°
True anomaly
113.28194°
Mean anomaly
113.2693°
Eccentric anomaly
113.27562°
Mean motion
3.81734 °/min
Orbital period
94.31 mins
BSTAR
0.00066821
Loading maneuver chart data...
Computing Atmospheric mass density...
Loading historical data...
Loading historical data...
Loading historical data...
Loading historical data...
Loading historical data...
Loading historical data...
Loading historical data...

Documentation

Showing up to 5 results
|